Location: City of Moscow
(46.7306°N, 116.9989°W)
Time: 21:11:44
(UTC+00:00)

Cosmos 2360 Rocket - Pass Details

Date: 11 December 2025
Orbit: 834 x 842 km, 71.0° (Epoch: 12 January)

Event Time Altitude Azimuth Distance (km) Brightness Sun altitude
Exits shadow 12:23:04 24° 9° (N) 1,658 3.7 -29.8°
Maximum altitude 12:25:25 34° 52° (NE) 1,356 3.6 -29.4°
Drops below altitude 10° 12:30:29 10° 116° (ESE) 2,444 5.4 -28.5°
Sets 12:33:08 0° 126° (SE) 3,373 6.2 -28.0°
